User: anonymous   Login
Location: Unspecified
(0.0000°N, 0.0000°E)
Time: 00:22:57
(UTC+02:00)
Language:

NATO 3D Rocket - Orbit

View from above orbital plane
View from above orbital plane
View from above satellite
View from above satellite

Ground track
Ground track

The orbit data is extracted from the following two-line orbital elements,

1 15392U 84115B   15085.14038325  .00000158  00000-0 -12214-4 0  9993
2 15392 021.4968 070.7984 1034808 211.5418 237.4450 12.45478044382448
Epoch (UTC): 26 March 2015 03:22:09
Eccentricity: 0.1034808
inclination: 21.4968°
perigee height: 670 km
apogee height: 2297 km
right ascension of ascending node: 70.7984°
argument of perigee: 211.5418°
revolutions per day: 12.45478044
mean anomaly at epoch: 237.4450°
orbit number at epoch: 38244

The dashed part of the orbit path shows where the satellite is in the earth's shadow,  

DLR